{"data":{"norad_id":56410,"epoch":"2026-09-20T02:41:29.194944Z","epoch_age_seconds":145668,"freshness":"FRESH","line1":"1 56410U 23061AN  26263.11214346  .00000048  00000+0  11273-4 0  9998","line2":"2 56410  43.0028 168.6396 0000794 251.0374 109.0391 15.27576680186618","mean_motion":15.2757668,"eccentricity":7.94e-5,"inclination_deg":43.0028,"raan_deg":168.6396,"arg_perigee_deg":251.0374,"mean_anomaly_deg":109.0391,"bstar":1.1273e-5,"rev_number":18661,"period_min":94.266953590834,"perigee_km":482.51425836666,"apogee_km":483.60381629739,"semimajor_km":6861.196037332,"source":"CELESTRAK","updated_at":"2026-09-21T09:00:33.436697Z"}}